SCP
2 2 2 3 3 2 1 2 2 2 2 2 2 1 1 1 1 1 0 0 0 0 0 0 0 0 0 0 0 0 0 0
0 0 0 3 3 2 2 2 2 2 2 2 1 1 1 1 1 1 0 0 0 0 0 0 0 0 0 0 0 0 0 0
0 1 1 1 1 1 1 1 1 2 2 2 1 1 1 1 1 1 1 0 0 0 0 0 0 0 0 0 0 0 0 0
0 1 0 0 0 0 0 1 1 1 1 1 1 1 1 1 1 1 1 0 0 0 0 0 0 0 0 0 0 0 0 0
0 1 0 0 0 0 0 0 0 0 0 0 0 0 0 0 0 0 0 0 0 0 0 0 0 0 0 0 0 0 0 0
0 0 1 0 0 0 0 0 0 0 0 0 0 0 0 0 0 0 0 0 0 0 0 0 0 0 0 0 0 0 0 0
0 0 1 0 0 0 0 0 0 0 0 0 0 0 0 0 0 0 0 0 0 0 0 0 0 0 0 0 0 0 0 0
0 1 1 1 0 0 0 0 0 0 0 0 0 0 0 0 0 0 0 0 0 0 0 0 0 0 0 0 0 0 0 0
0 1 2 2 1 0 0 0 0 0 0 0 1 0 0 0 0 0 0 0 0 0 0 0 0 0 0 0 0 0 0 0
0 1 2 1 1 0 0 0 0 0 0 0 0 0 0 0 0 0 0 0 0 0 0 0 0 0 0 0 0 0 0 0
0 1 1 1 1 0 0 0 0 0 0 0 0 0 0 0 0 0 0 0 0 0 0 0 0 0 0 0 0 0 0 0
0 1 1 1 0 0 0 0 0 0 0 0 0 0 0 0 0 0 0 0 0 0 0 0 0 0 0 0 0 0 0 0
0 1 1 1 0 0 0 0 0 0 0 0 0 0 0 0 0 0 0 0 0 0 0 0 0 0 0 0 0 0 0 0
0 1 2 2 1 0 0 0 0 0 0 0 0 0 0 0 0 0 0 0 0 0 0 0 0 0 0 0 0 0 0 0
1 1 2 1 1 1 0 0 0 0 0 0 0 0 0 0 0 0 0 0 0 0 0 0 0 0 0 0 0 0 0 0
1 0 0 0 0 0 0 0 0 0 0 0 0 0 0 0 0 0 0 0 0 0 0 0 0 0 0 0 0 0 0 0
0 0 0 0 0 0 0 0 0 0 0 0 0 0 0 0 0 0 0 0 0 0 0 0 0 0 0 0 0 0 0 0
0 0 0 0 0 0 0 0 0 0 0 0 0 0 0 0 0 0 0 0 0 0 0 0 0 0 0 0 0 0 0 0
0 0 0 0 0 0 0 0 0 0 0 0 0 0 0 0 0 0 0 0 0 0 0 0 0 0 0 0 0 0 0 0
0 0 0 0 0 0 0 0 0 0 0 0 0 0 0 0 0 0 0 0 0 0 0 0 0 0 0 0 0 0 0 0
Wind_Speed_500mb
55 56 57 62 63 61 62 60 56 52 50 48 46 43 42 39 37 31 28 26 26 25 26 28 27 24 22 22 21 22 21 22
54 52 53 54 55 58 57 55 54 53 49 44 42 40 38 36 35 33 33 31 29 26 25 25 24 22 23 25 28 30 31 29
62 50 47 46 46 52 51 48 51 57 57 49 43 38 34 32 36 35 33 31 27 26 21 21 29 28 30 30 30 31 35 35
60 44 51 48 47 45 43 51 61 61 55 57 53 43 37 33 36 39 34 33 26 29 28 26 26 29 32 34 33 32 27 23
33 49 59 54 48 41 37 44 57 59 56 54 48 43 46 33 40 46 38 36 34 32 35 33 32 32 32 35 33 31 29 29
29 30 45 47 41 41 38 49 52 56 52 65 60 55 58 52 51 47 42 42 39 39 42 39 35 36 35 26 20 26 40 56
34 37 45 45 44 42 45 45 51 51 55 61 66 63 66 62 56 40 35 39 37 41 46 46 42 38 44 47 42 54 47 48
36 45 46 49 48 46 49 50 51 57 54 59 59 69 65 63 43 40 44 35 39 45 45 47 42 65 60 38 41 55 38 45
37 52 57 59 58 56 47 48 49 45 56 65 64 72 65 42 38 40 44 44 19 30 48 48 43 41 39 26 36 38 47 39
48 48 62 70 60 54 47 44 50 55 54 60 62 52 48 43 43 45 36 32 36 32 42 35 36 28 24 24 23 27 37 37
48 50 62 71 67 55 49 40 48 54 57 61 56 53 50 55 55 47 29 33 27 25 24 21 21 27 29 30 31 30 25 24
56 55 67 71 67 57 54 48 50 53 58 59 59 56 50 56 50 33 30 28 21 20 22 19 25 28 30 33 28 27 31 27
61 62 66 73 71 69 58 58 55 59 55 53 48 41 33 34 32 26 26 26 22 24 27 21 32 26 21 26 27 28 32 35
55 64 70 79 74 68 64 58 56 55 51 46 38 25 27 25 27 29 30 33 34 34 36 30 28 26 26 29 32 34 37 43
58 64 73 79 79 71 61 55 62 57 41 35 33 32 24 21 24 32 36 41 44 42 34 27 27 28 30 35 39 45 52 57
59 64 77 83 80 66 57 53 55 50 37 34 33 33 30 27 31 33 34 34 33 31 29 30 32 34 39 44 50 53 57 60
44 54 72 75 60 55 52 48 47 41 39 41 41 40 39 35 32 32 34 37 36 36 37 38 39 43 47 51 53 56 58 60
56 54 52 54 50 50 48 43 44 39 34 33 34 32 30 30 30 27 27 28 29 32 36 40 43 45 49 52 54 54 56 58
77 77 68 59 50 42 40 38 34 34 33 29 28 25 22 21 22 22 22 24 29 33 37 40 43 46 48 52 55 59 61 61
83 76 68 62 56 48 39 38 37 32 28 23 21 17 14 15 17 20 24 28 32 37 40 44 47 51 54 57 58 56 56 55
Wind_Direction_500mb
187 187 188 184 184 187 192 195 195 198 201 202 203 202 205 207 214 226 233 238 247 253 252 244 236 240 246 257 270 272 272 277
194 199 195 194 189 192 193 194 198 200 204 204 206 204 208 218 224 226 235 237 244 251 253 248 245 247 250 254 260 262 267 268
201 207 199 203 205 202 205 200 210 209 205 199 199 202 212 221 229 233 234 237 248 248 241 226 223 227 238 249 259 269 274 275
212 211 204 205 209 202 213 220 214 209 209 210 203 198 202 211 226 232 230 231 241 237 219 221 228 239 253 264 273 276 278 290
201 214 213 206 208 207 217 218 209 210 216 201 195 220 217 217 237 231 221 223 228 231 220 225 236 244 256 266 273 274 275 279
211 197 199 196 204 208 203 195 204 213 220 218 230 233 226 229 230 231 220 222 220 229 225 230 234 234 237 243 267 292 286 266
226 208 194 195 197 200 201 203 213 213 215 223 233 235 225 227 238 247 237 233 225 232 232 235 235 245 258 269 267 279 274 253
217 210 206 198 197 196 202 204 209 208 216 225 228 222 227 240 255 231 233 235 245 244 243 250 248 272 271 268 275 267 264 263
253 209 200 196 194 197 198 205 206 205 215 218 228 233 244 238 236 233 238 229 242 251 262 267 258 276 250 252 262 262 262 248
252 217 199 195 192 188 192 194 209 213 218 229 225 230 224 241 248 248 247 229 223 214 246 254 257 256 243 243 233 232 245 251
240 212 201 198 193 190 180 187 204 211 220 219 222 214 245 238 233 239 225 212 227 229 239 243 241 253 254 241 234 240 243 235
240 216 199 196 193 184 183 193 202 204 209 202 210 229 240 238 240 244 223 225 228 238 238 221 231 240 238 233 220 234 240 242
223 220 211 198 185 182 189 199 196 191 192 204 212 222 226 232 233 229 228 230 241 249 239 241 237 231 220 226 237 237 240 248
212 205 198 186 185 187 198 199 191 182 188 199 204 214 222 217 215 219 218 228 237 233 233 226 222 228 235 241 244 250 257 267
183 190 188 184 185 194 195 197 188 185 193 199 216 227 235 248 249 243 241 236 231 223 221 229 237 240 243 247 254 262 268 273
177 182 179 184 188 191 189 188 191 193 200 224 228 231 236 248 245 232 218 208 205 211 219 228 236 240 248 258 267 273 278 280
131 154 173 178 178 174 176 188 190 200 216 221 228 233 239 230 209 192 198 208 213 218 227 236 248 258 266 271 273 274 274 277
123 134 143 148 160 168 181 191 189 200 197 200 200 195 181 178 181 185 202 215 228 240 252 259 266 271 273 276 279 282 284 285
108 108 111 114 114 117 125 139 134 143 151 155 163 172 177 188 202 215 232 246 256 264 270 275 279 283 288 290 292 292 289 288
108 104 104 105 107 113 116 127 135 131 133 143 150 159 182 205 226 241 252 260 267 274 278 281 284 285 288 293 296 294 290 289
Wind_Speed_850mb
55 56 57 62 63 61 62 60 56 52 50 48 46 43 42 39 37 31 28 26 26 25 26 28 27 24 22 22 21 22 21 22
54 52 53 54 55 58 57 55 54 53 49 44 42 40 38 36 35 33 33 31 29 26 25 25 24 22 23 25 28 30 31 29
62 50 47 46 46 52 51 48 51 57 57 49 43 38 34 32 36 35 33 31 27 26 21 21 29 28 30 30 30 31 35 35
60 44 51 48 47 45 43 51 61 61 55 57 53 43 37 33 36 39 34 33 26 29 28 26 26 29 32 34 33 32 27 23
33 49 59 54 48 41 37 44 57 59 56 54 48 43 46 33 40 46 38 36 34 32 35 33 32 32 32 35 33 31 29 29
29 30 45 47 41 41 38 49 52 56 52 65 60 55 58 52 51 47 42 42 39 39 42 39 35 36 35 26 20 26 40 56
34 37 45 45 44 42 45 45 51 51 55 61 66 63 66 62 56 40 35 39 37 41 46 46 42 38 44 47 42 54 47 48
36 45 46 49 48 46 49 50 51 57 54 59 59 69 65 63 43 40 44 35 39 45 45 47 42 65 60 38 41 55 38 45
37 52 57 59 58 56 47 48 49 45 56 65 64 72 65 42 38 40 44 44 19 30 48 48 43 41 39 26 36 38 47 39
48 48 62 70 60 54 47 44 50 55 54 60 62 52 48 43 43 45 36 32 36 32 42 35 36 28 24 24 23 27 37 37
48 50 62 71 67 55 49 40 48 54 57 61 56 53 50 55 55 47 29 33 27 25 24 21 21 27 29 30 31 30 25 24
56 55 67 71 67 57 54 48 50 53 58 59 59 56 50 56 50 33 30 28 21 20 22 19 25 28 30 33 28 27 31 27
61 62 66 73 71 69 58 58 55 59 55 53 48 41 33 34 32 26 26 26 22 24 27 21 32 26 21 26 27 28 32 35
55 64 70 79 74 68 64 58 56 55 51 46 38 25 27 25 27 29 30 33 34 34 36 30 28 26 26 29 32 34 37 43
58 64 73 79 79 71 61 55 62 57 41 35 33 32 24 21 24 32 36 41 44 42 34 27 27 28 30 35 39 45 52 57
59 64 77 83 80 66 57 53 55 50 37 34 33 33 30 27 31 33 34 34 33 31 29 30 32 34 39 44 50 53 57 60
44 54 72 75 60 55 52 48 47 41 39 41 41 40 39 35 32 32 34 37 36 36 37 38 39 43 47 51 53 56 58 60
56 54 52 54 50 50 48 43 44 39 34 33 34 32 30 30 30 27 27 28 29 32 36 40 43 45 49 52 54 54 56 58
77 77 68 59 50 42 40 38 34 34 33 29 28 25 22 21 22 22 22 24 29 33 37 40 43 46 48 52 55 59 61 61
83 76 68 62 56 48 39 38 37 32 28 23 21 17 14 15 17 20 24 28 32 37 40 44 47 51 54 57 58 56 56 55
Wind_Direction_850mb
187 187 188 184 184 187 192 195 195 198 201 202 203 202 205 207 214 226 233 238 247 253 252 244 236 240 246 257 270 272 272 277
194 199 195 194 189 192 193 194 198 200 204 204 206 204 208 218 224 226 235 237 244 251 253 248 245 247 250 254 260 262 267 268
201 207 199 203 205 202 205 200 210 209 205 199 199 202 212 221 229 233 234 237 248 248 241 226 223 227 238 249 259 269 274 275
212 211 204 205 209 202 213 220 214 209 209 210 203 198 202 211 226 232 230 231 241 237 219 221 228 239 253 264 273 276 278 290
201 214 213 206 208 207 217 218 209 210 216 201 195 220 217 217 237 231 221 223 228 231 220 225 236 244 256 266 273 274 275 279
211 197 199 196 204 208 203 195 204 213 220 218 230 233 226 229 230 231 220 222 220 229 225 230 234 234 237 243 267 292 286 266
226 208 194 195 197 200 201 203 213 213 215 223 233 235 225 227 238 247 237 233 225 232 232 235 235 245 258 269 267 279 274 253
217 210 206 198 197 196 202 204 209 208 216 225 228 222 227 240 255 231 233 235 245 244 243 250 248 272 271 268 275 267 264 263
253 209 200 196 194 197 198 205 206 205 215 218 228 233 244 238 236 233 238 229 242 251 262 267 258 276 250 252 262 262 262 248
252 217 199 195 192 188 192 194 209 213 218 229 225 230 224 241 248 248 247 229 223 214 246 254 257 256 243 243 233 232 245 251
240 212 201 198 193 190 180 187 204 211 220 219 222 214 245 238 233 239 225 212 227 229 239 243 241 253 254 241 234 240 243 235
240 216 199 196 193 184 183 193 202 204 209 202 210 229 240 238 240 244 223 225 228 238 238 221 231 240 238 233 220 234 240 242
223 220 211 198 185 182 189 199 196 191 192 204 212 222 226 232 233 229 228 230 241 249 239 241 237 231 220 226 237 237 240 248
212 205 198 186 185 187 198 199 191 182 188 199 204 214 222 217 215 219 218 228 237 233 233 226 222 228 235 241 244 250 257 267
183 190 188 184 185 194 195 197 188 185 193 199 216 227 235 248 249 243 241 236 231 223 221 229 237 240 243 247 254 262 268 273
177 182 179 184 188 191 189 188 191 193 200 224 228 231 236 248 245 232 218 208 205 211 219 228 236 240 248 258 267 273 278 280
131 154 173 178 178 174 176 188 190 200 216 221 228 233 239 230 209 192 198 208 213 218 227 236 248 258 266 271 273 274 274 277
123 134 143 148 160 168 181 191 189 200 197 200 200 195 181 178 181 185 202 215 228 240 252 259 266 271 273 276 279 282 284 285
108 108 111 114 114 117 125 139 134 143 151 155 163 172 177 188 202 215 232 246 256 264 270 275 279 283 288 290 292 292 289 288
108 104 104 105 107 113 116 127 135 131 133 143 150 159 182 205 226 241 252 260 267 274 278 281 284 285 288 293 296 294 290 289